星链-30959 (STARLINK-30959 )

导读 | 星芒AI

STARLINK-30959 是 SpaceX 星链计划中的一颗低轨通信卫星,属于第 11 批(v1.5 版本)发射的星链卫星群。该卫星于 2023 年 10 月 由猎鹰 9 号火箭送入近地轨道,主要任务是为全球提供高速互联网服务。它运行在约 550 公里的高度,设计寿命约 5-7 年,采用可再生太阳能供电,并具备自动避撞功能。星链计划旨在通过大规模卫星组网,提升偏远地区网络覆盖,推动全球互联网普及。

基本信息
目录编号:
58442
目录名称:
STARLINK-30959
国际标识:
2023-183F
轨道中心:
EARTH
卫星名称:
星链-30959
卫星全名:
星链-30959 (STARLINK-30959 )
卫星状态:
在轨 (已飞行703 天)
发射日期:
2023-11-28 UTC
国别 :
美国 (US)
星等 :
--
轨道信息
数据来源 国际轨道数据
星历时间: 2025-10-30T23:16:30+0800
22小时前
查看轨道信息
半长轴: 6937.181km
偏心率: 0.0002454
轨道倾角: 43.008°
近地点辐角 275.704°
升交点赤经 29.759°
平近点角 84.352°
近地点: 557.343km
远地点: 560.749km
周期: 95.837分钟
每日圈数: 15.025477
详细信息
固有亮度:
5
最大亮度:
0.3
卫星平台:
Starlink v2.0 mini
覆盖范围:
全球
运营商:
太空探索技术公司
运营商所在国:
美国
制造商(研发单位):
太空探索技术公司
制造商所在国:
美国
使用方式:
暂无
卫星简介
星链(Starlink)计划是由太空探索技术公司(SpaceX)提出的一个巨型低轨卫星互联网星座项目,计划在2019年至2024年间在太空搭建由约1.2万颗卫星组成的“星链”网络,其中1584颗将部署在地球上空550千米处的近地轨道,并从2020年开始工作。该卫星仍在工作。
2D轨道图
3D轨道图
轨道高度分析图
轨道倾角分析图
轨道综合分析图
查看轨道综合分析图